Wetbulb
55.96 55.56 55.18 55.28 55.42 53.37 52.59 52.61 52.29 52.26 52.76 52.24 52.49 53.09 53.36 52.96 51.13 50.16 47.35 49.77 47.28 42.54 42.53 42.94 43.14 41.02 41.08 41.21 38.36 38.87 39.44 41.55 40.15 34.03 32.63 34.67 33.81 35.94 35.52 36.99 34.41 33.38 32.91 32.25 34.39 34.59 37.95 47.85 49.60 47.89 48.74 51.69 52.47 51.71
55.40 55.01 54.72 54.86 54.66 52.53 52.26 52.28 52.17 52.10 52.78 52.17 52.51 52.48 53.03 53.25 51.97 50.45 46.40 50.84 50.65 46.03 43.07 45.32 46.08 46.99 46.38 45.38 43.37 41.72 41.98 40.42 40.62 34.96 33.88 36.45 34.19 37.32 37.39 32.11 39.89 33.65 38.58 37.07 38.64 42.83 47.35 48.17 47.74 50.48 51.02 51.32 53.01 54.19
55.16 54.63 54.54 54.72 53.83 51.91 51.95 52.20 52.04 52.06 52.74 52.34 52.38 52.38 52.61 53.46 52.49 50.14 47.26 48.13 48.27 42.48 42.85 42.02 43.25 46.76 47.51 47.21 48.71 41.57 43.44 44.65 41.78 41.46 35.26 34.26 33.36 37.46 34.43 35.46 39.50 42.23 44.81 41.78 43.17 44.35 45.99 47.96 50.34 51.64 53.31 53.72 55.01 55.09
54.59 54.23 54.16 54.36 52.50 51.41 51.85 51.87 51.94 52.12 52.78 52.34 52.46 52.19 52.17 53.30 52.05 49.75 48.41 48.38 47.12 44.47 39.00 42.38 46.03 45.45 48.06 47.41 47.02 47.04 45.71 45.74 45.12 43.88 36.03 34.99 34.86 39.10 35.84 37.87 39.35 40.21 42.93 41.99 41.01 44.84 47.32 48.66 48.99 50.64 53.06 54.43 54.27 54.97
54.07 53.83 54.21 53.57 51.53 51.51 51.74 51.84 52.01 51.94 52.68 52.36 52.43 52.07 51.95 52.54 52.23 51.02 50.97 48.45 47.54 44.85 38.63 40.93 45.09 46.59 47.61 47.59 46.42 46.44 44.96 43.26 42.61 40.88 36.74 35.24 37.49 36.74 40.55 40.61 37.13 41.94 41.31 41.71 39.31 43.48 45.01 47.40 49.34 50.69 52.40 52.41 53.18 53.54
53.59 53.49 54.14 52.63 51.07 51.32 51.68 51.73 51.87 51.71 52.51 52.72 52.49 52.35 51.99 51.70 52.15 50.55 45.63 50.23 49.30 49.27 40.60 38.28 45.01 45.22 47.44 48.22 46.35 45.64 44.98 43.75 42.63 44.29 41.91 41.88 43.79 41.43 37.05 35.62 39.21 43.50 46.49 45.92 43.91 46.63 46.55 49.36 50.22 51.72 51.57 53.20 53.25 53.43
53.55 53.61 53.67 51.53 51.09 51.15 51.38 51.46 51.62 51.82 52.20 52.13 51.91 51.42 51.27 51.70 51.50 47.46 44.89 47.98 49.93 48.88 41.33 38.78 40.84 46.32 46.10 46.72 47.69 47.13 46.24 47.08 47.30 44.77 41.86 41.63 41.10 41.66 37.27 33.52 40.14 43.40 45.04 46.32 47.80 48.06 47.47 48.96 48.30 51.99 52.66 54.39 54.08 54.06
53.33 53.32 51.57 51.17 50.96 50.93 51.05 51.21 51.29 52.11 51.88 51.92 51.44 50.96 50.97 50.74 49.82 47.48 49.83 49.66 49.31 47.10 44.49 37.23 39.27 42.75 46.66 45.77 45.42 46.06 45.67 46.51 44.78 43.82 44.18 40.77 42.10 40.09 35.09 39.98 42.35 43.92 44.71 45.46 47.06 47.74 47.39 49.36 50.33 50.28 52.02 53.69 53.72 51.43
53.05 51.54 50.84 50.56 50.51 50.77 51.05 51.17 51.91 51.92 51.62 51.51 51.32 51.12 49.77 48.01 45.75 47.59 51.65 51.35 49.44 46.21 39.91 39.68 37.42 38.05 45.20 45.02 45.41 45.34 45.02 42.24 45.32 41.35 40.79 41.54 37.96 34.02 39.03 41.01 41.95 43.55 43.90 44.82 46.41 46.26 46.42 46.12 46.99 48.69 49.35 50.02 50.00 50.38
51.63 50.53 50.23 50.33 50.49 50.98 51.10 51.98 51.85 51.34 51.15 51.37 50.13 46.85 44.83 48.55 52.57 51.25 46.11 43.45 43.83 43.99 42.19 38.95 42.55 40.09 43.46 44.04 43.85 43.11 43.56 40.84 38.75 40.53 43.21 38.72 35.97 41.03 42.90 45.12 44.97 45.34 45.21 44.90 43.14 42.20 44.10 44.14 44.82 46.81 47.13 48.18 49.23 49.12
50.58 50.19 50.27 50.28 50.64 51.06 51.55 51.77 51.39 50.76 50.32 48.51 46.47 46.08 49.02 51.96 47.37 45.18 41.73 40.57 41.87 39.62 42.23 42.53 42.54 41.85 45.17 41.62 40.80 42.80 40.23 40.30 35.96 38.98 38.68 36.86 36.31 40.47 43.66 44.97 45.65 45.84 45.73 44.50 44.48 44.42 44.56 44.89 45.20 45.39 46.29 46.92 48.03 48.60
50.11 49.89 49.94 50.34 50.71 51.15 51.66 51.23 50.89 49.78 48.55 48.69 49.28 49.59 48.22 45.35 43.76 41.11 39.93 41.39 40.18 39.93 42.74 42.97 42.87 43.98 44.26 45.73 42.81 42.59 39.99 40.87 33.63 42.56 38.87 33.98 39.89 42.68 43.37 43.44 44.30 44.95 45.06 45.17 45.82 43.58 43.40 43.45 44.07 44.39 45.02 46.14 46.61 47.63
49.73 49.68 49.77 50.16 50.84 51.43 51.55 51.10 50.25 50.41 49.94 51.73 48.94 45.55 44.07 43.79 37.07 36.20 32.63 35.17 35.53 43.83 44.34 42.66 41.72 44.36 44.23 45.16 42.63 42.03 38.04 36.90 42.47 36.97 34.28 38.25 42.94 43.59 44.36 43.82 43.81 44.87 44.19 43.71 43.09 43.40 42.16 41.70 42.62 42.83 43.15 45.10 46.12 46.77
49.25 49.47 49.74 50.16 51.00 51.43 51.30 50.82 50.94 50.83 49.73 47.95 45.62 36.42 42.34 40.89 42.88 44.38 42.29 43.25 48.08 48.28 44.31 44.05 42.44 43.09 45.13 43.49 42.99 37.80 39.23 40.39 33.79 32.63 33.46 40.52 43.28 43.76 44.77 46.29 43.93 43.07 43.98 43.96 43.60 43.40 42.88 43.04 42.15 42.07 42.00 42.66 43.61 43.83
49.86 50.18 50.19 50.41 51.22 51.16 51.16 50.60 51.04 50.35 48.46 46.61 46.85 38.28 43.15 47.68 48.59 48.48 49.94 47.65 49.50 48.53 45.58 44.29 41.71 43.03 42.00 39.90 41.22 39.29 36.01 32.63 34.47 33.96 39.16 43.66 45.18 44.74 44.30 45.07 46.01 44.38 44.04 44.83 45.43 44.97 44.13 43.85 43.47 43.69 44.37 44.91 44.99 45.17
50.45 50.78 50.57 51.02 51.34 51.16 50.65 50.67 49.91 49.12 48.79 48.04 46.54 44.16 47.45 46.04 46.16 47.22 47.60 45.04 48.92 48.12 46.61 44.11 39.08 38.64 38.76 39.28 36.88 34.69 34.86 33.20 37.73 42.08 44.98 46.26 44.55 44.36 44.42 45.06 44.74 47.33 46.25 46.31 46.27 46.15 46.81 45.72 44.78 44.72 45.28 44.84 44.72 44.68
51.51 51.15 50.74 51.52 51.03 50.56 50.45 50.17 48.53 46.47 47.37 48.22 46.72 48.12 48.06 47.09 46.22 47.48 46.10 46.67 50.98 47.94 43.76 42.84 38.22 38.25 42.26 38.10 36.10 40.33 38.25 40.70 43.64 45.00 46.09 45.43 44.53 44.90 44.73 43.85 43.44 47.06 48.06 47.39 47.71 47.42 46.83 47.03 47.39 46.49 44.63 45.34 45.24 45.41
50.70 50.64 51.69 51.02 50.68 50.23 51.21 50.10 48.60 48.30 46.72 47.97 46.49 47.52 47.60 47.95 47.52 47.78 47.35 47.17 48.98 48.14 47.34 42.15 44.44 38.75 36.86 35.35 37.56 41.21 43.08 43.96 44.91 43.45 42.20 42.59 43.65 44.95 46.80 46.60 47.22 48.27 45.78 44.01 43.94 44.23 44.10 44.12 43.77 44.60 46.49 46.95 46.47 45.89
49.82 50.95 51.52 51.49 51.13 49.57 48.59 49.06 49.87 47.01 48.14 50.22 49.42 47.05 47.93 47.49 46.67 45.91 46.54 47.17 45.44 46.57 43.89 42.12 38.46 36.80 36.04 39.67 41.62 41.80 42.29 43.38 40.86 40.65 41.27 42.79 43.81 44.95 46.05 46.06 44.94 44.30 43.91 43.56 43.39 42.76 43.41 43.72 42.97 43.51 45.35 47.16 46.50 47.29
50.24 50.82 51.47 51.24 51.03 48.98 47.81 49.69 52.23 49.07 47.22 45.70 47.18 44.74 45.00 44.69 44.78 44.94 45.00 44.40 44.09 42.55 38.87 37.79 37.16 38.87 41.01 41.19 42.31 42.45 41.44 42.64 42.86 40.93 40.29 41.39 42.30 43.11 42.95 42.82 41.93 42.92 42.39 42.82 42.48 40.40 43.21 43.62 44.09 44.38 44.17 43.91 44.42 44.58
49.79 50.74 51.57 50.82 49.60 48.04 47.26 49.73 49.71 48.54 47.50 45.85 47.89 47.13 44.71 46.56 43.27 41.78 41.42 45.17 41.96 39.73 37.16 38.65 39.03 40.02 41.47 41.32 41.77 41.39 41.70 43.47 42.76 43.35 41.41 40.36 41.32 42.18 41.85 42.34 43.13 42.43 41.40 41.04 40.61 40.73 41.08 41.66 42.88 44.49 44.79 44.89 45.26 45.51
50.01 51.56 49.00 49.11 47.76 47.80 47.26 52.44 50.81 51.19 49.02 47.39 46.11 47.37 44.39 41.15 40.42 40.16 41.96 39.44 39.98 40.44 41.31 40.04 40.39 41.30 42.31 42.41 42.37 43.11 42.73 42.90 42.78 40.60 39.91 40.34 41.04 41.31 41.07 41.47 41.39 40.41 40.63 40.86 41.38 40.94 41.66 43.06 43.29 44.42 44.53 44.90 44.29 45.16
50.70 50.43 50.09 49.08 49.16 46.30 45.22 52.74 49.14 49.32 44.89 46.79 47.36 43.98 42.17 40.19 40.26 42.43 35.97 37.25 40.21 43.72 44.14 43.68 45.28 44.10 41.84 42.18 43.16 42.64 43.37 43.70 42.15 41.83 41.63 41.69 41.21 41.54 41.87 41.89 42.17 41.14 41.04 41.89 42.44 42.11 42.11 39.46 42.46 42.94 43.65 43.89 44.64 45.18
51.27 53.15 51.63 50.30 47.85 44.19 49.33 46.86 48.62 48.04 48.10 45.96 44.39 40.62 40.44 40.39 42.35 38.02 34.94 36.77 41.17 44.53 43.86 44.17 44.73 44.89 43.17 42.85 42.25 42.30 42.88 44.40 42.52 41.96 42.56 41.83 41.19 40.81 42.22 42.43 42.75 42.87 42.65 42.47 42.75 42.62 43.08 42.78 40.15 43.34 43.65 43.34 43.10 42.98
46.13 44.44 46.21 37.46 49.12 47.73 45.96 45.25 45.82 46.21 43.37 44.73 42.24 40.65 40.00 42.95 37.13 36.07 34.63 36.39 40.84 43.62 44.33 45.09 45.99 45.13 42.78 42.37 42.38 42.45 42.13 44.04 43.23 41.95 41.40 42.82 42.48 42.05 42.01 42.87 43.13 42.75 43.19 41.76 42.07 42.55 42.80 43.47 43.41 43.40 43.37 43.33 42.82 42.81
40.16 47.15 43.22 47.28 46.24 45.94 45.44 42.65 44.06 44.39 44.94 42.80 42.22 41.85 42.22 38.63 34.33 33.56 37.21 38.32 40.72 43.66 44.47 45.26 44.31 43.81 41.37 40.90 41.87 42.28 41.92 42.50 42.79 41.43 40.73 42.47 42.23 41.82 41.09 40.50 40.43 41.87 44.18 43.43 42.47 42.31 42.65 43.02 42.86 42.86 42.69 42.41 39.50 42.30
41.59 46.38 48.92 51.03 49.75 48.69 46.64 46.43 45.89 44.60 42.33 42.15 43.17 40.83 38.73 33.44 33.73 38.90 43.24 44.58 44.34 45.74 46.22 46.57 45.95 45.22 41.04 40.73 41.56 41.83 42.23 42.73 42.85 42.03 42.65 43.33 43.50 43.37 42.93 41.14 40.31 42.24 44.00 44.01 44.00 43.69 42.77 42.85 42.66 42.61 42.53 43.27 43.53 43.25
48.57 49.28 45.18 46.87 45.11 44.90 41.94 40.33 39.90 39.32 41.40 42.86 42.79 37.47 35.74 35.73 36.63 42.99 44.83 46.92 46.51 47.17 46.87 46.29 45.78 42.07 41.66 41.91 42.69 42.33 41.89 42.65 42.87 43.06 43.23 43.60 43.94 44.17 43.91 44.91 44.74 37.25 43.25 44.59 44.62 44.51 43.90 43.51 42.96 43.00 42.52 42.38 42.74 43.90
48.51 49.64 47.29 42.06 41.93 41.49 40.40 39.38 39.22 41.56 42.54 42.65 40.04 38.36 39.07 43.70 45.16 45.51 46.02 46.93 47.00 46.51 42.65 39.80 39.75 41.90 41.92 42.21 42.31 42.54 42.73 43.01 41.31 38.72 38.41 38.93 40.31 41.68 44.14 44.43 44.58 44.83 44.88 44.78 38.98 40.24 43.08 43.30 43.39 43.42 43.40 43.26 43.82 43.95
46.12 48.93 43.03 40.77 38.83 37.90 40.27 41.93 41.62 43.35 43.87 44.01 43.44 42.76 43.41 45.23 47.06 47.99 47.83 47.20 44.94 44.54 44.51 42.15 41.83 42.37 41.39 40.95 40.59 41.18 43.02 43.91 43.84 42.31 40.42 40.19 41.63 44.16 44.50 44.50 44.34 44.76 45.04 44.93 44.77 44.83 40.67 43.32 42.72 44.53 43.39 43.09 43.04 43.00
48.88 45.29 41.44 40.71 39.37 41.74 43.15 44.55 45.28 44.95 44.65 44.03 45.00 43.47 43.30 45.14 46.78 47.19 47.07 46.92 42.91 41.62 41.04 40.57 41.57 42.60 42.03 40.95 40.95 40.72 40.54 43.31 43.53 43.57 43.81 44.24 44.24 44.22 44.52 44.68 44.74 44.51 44.16 43.94 44.00 43.83 43.74 43.17 43.00 42.88 42.70 42.52 42.71 41.74
46.49 42.68 40.85 38.05 39.76 44.32 46.31 44.14 43.37 42.86 43.53 43.09 42.88 44.43 44.27 43.93 41.45 44.98 43.04 42.36 41.25 40.56 40.48 41.78 41.99 42.08 43.75 44.35 44.30 44.82 37.21 45.32 45.44 45.37 44.48 44.79 44.98 45.31 45.28 45.16 44.95 44.40 44.00 43.56 43.65 43.39 43.15 42.61 42.74 42.32 42.06 41.77 42.18 42.23
44.79 44.54 43.84 43.33 42.86 42.80 44.39 43.59 41.94 41.05 42.10 41.28 41.92 43.14 43.39 42.55 40.00 45.05 43.78 44.75 44.41 43.16 42.17 42.95 44.28 45.24 45.37 44.84 44.68 45.24 40.31 45.54 43.75 37.30 36.03 35.86 35.18 37.67 41.20 44.69 45.59 44.88 44.07 44.04 44.26 44.16 43.40 43.09 42.81 42.58 42.20 42.01 41.79 41.54
MSLP
1020.00 1019.96 1019.81 1019.77 1019.90 1020.16 1020.25 1020.27 1020.23 1020.05 1019.96 1019.95 1019.96 1019.88 1019.92 1020.17 1020.34 1020.54 1021.12 1021.02 1020.86 1020.73 1020.68 1020.61 1020.62 1020.38 1020.38 1020.26 1019.95 1020.29 1020.23 1020.21 1020.36 1020.62 1020.48 1019.64 1018.82 1017.54 1016.58 1016.11 1016.12 1016.05 1015.76 1015.58 1015.44 1013.53 1011.93 1012.01 1011.40 1011.19 1011.84 1011.35 1010.94 1010.68
1019.18 1019.34 1019.23 1019.26 1019.47 1019.72 1019.84 1019.92 1020.02 1019.87 1019.79 1019.88 1019.95 1019.94 1019.92 1020.14 1020.37 1020.62 1021.03 1021.19 1021.16 1020.97 1020.81 1020.80 1020.37 1020.09 1019.94 1019.92 1020.08 1020.32 1019.93 1020.21 1020.37 1020.72 1020.83 1020.25 1019.47 1018.31 1016.75 1016.17 1016.16 1015.86 1014.70 1014.31 1014.53 1013.22 1013.32 1013.03 1013.03 1013.02 1012.58 1011.88 1011.42 1010.89
1018.57 1018.72 1018.56 1018.66 1019.07 1019.16 1019.38 1019.57 1019.70 1019.69 1019.57 1019.71 1019.86 1019.97 1019.99 1020.15 1020.44 1020.69 1021.10 1021.30 1021.18 1021.16 1020.63 1020.48 1019.61 1019.45 1019.90 1019.83 1019.90 1019.90 1019.57 1019.65 1020.12 1021.11 1021.26 1020.76 1019.82 1018.68 1017.50 1016.85 1015.53 1015.90 1015.78 1015.35 1014.85 1014.73 1014.18 1013.69 1013.69 1013.50 1012.91 1012.13 1011.64 1011.33
1017.84 1018.14 1018.18 1018.35 1018.72 1018.82 1018.92 1019.17 1019.30 1019.39 1019.34 1019.51 1019.78 1019.91 1020.09 1020.26 1020.51 1020.67 1020.85 1021.12 1021.26 1021.06 1020.54 1019.30 1019.11 1018.96 1018.98 1019.21 1019.30 1019.25 1019.21 1019.65 1020.09 1020.19 1020.64 1020.51 1019.82 1018.94 1018.06 1016.46 1016.31 1016.60 1016.51 1015.89 1015.68 1015.19 1014.70 1014.28 1014.38 1014.21 1013.57 1012.74 1012.13 1011.76
1017.18 1017.53 1017.60 1017.99 1018.33 1018.54 1018.69 1018.79 1019.00 1019.12 1019.13 1019.38 1019.64 1019.82 1019.98 1020.20 1020.46 1020.70 1020.89 1021.11 1021.17 1021.21 1020.58 1019.35 1018.80 1018.36 1018.45 1018.61 1018.74 1018.98 1019.24 1019.63 1019.48 1019.36 1019.68 1019.67 1019.51 1019.08 1017.76 1017.44 1017.70 1017.18 1017.06 1016.27 1015.92 1016.04 1015.45 1014.95 1015.00 1014.68 1014.17 1013.45 1012.85 1012.48
1016.58 1017.06 1017.26 1017.70 1018.06 1018.19 1018.32 1018.44 1018.67 1018.84 1018.93 1019.20 1019.49 1019.76 1019.93 1020.13 1020.45 1020.70 1020.81 1020.93 1020.98 1021.01 1020.81 1019.72 1018.90 1018.15 1017.99 1017.94 1018.01 1018.10 1018.63 1018.90 1018.86 1018.70 1018.86 1018.88 1018.42 1018.33 1018.01 1018.20 1018.52 1017.70 1017.38 1017.03 1016.68 1016.42 1015.99 1015.46 1015.31 1015.12 1014.70 1013.99 1013.48 1013.25
1016.12 1016.64 1017.06 1017.35 1017.62 1017.77 1018.02 1018.20 1018.38 1018.55 1018.80 1019.11 1019.42 1019.74 1019.96 1020.20 1020.25 1020.49 1020.63 1020.65 1020.86 1021.06 1020.72 1019.82 1018.72 1017.95 1017.76 1017.64 1017.57 1017.61 1018.00 1017.84 1017.89 1018.40 1018.77 1018.80 1018.76 1018.57 1018.72 1018.98 1019.01 1018.39 1017.59 1017.26 1016.80 1016.34 1016.00 1015.98 1015.93 1015.50 1015.00 1014.28 1014.11 1013.91
1015.67 1016.14 1016.67 1016.90 1017.27 1017.43 1017.70 1017.99 1018.17 1018.44 1018.78 1019.10 1019.45 1019.76 1020.13 1020.42 1020.50 1020.28 1020.11 1020.58 1020.84 1020.76 1020.70 1020.05 1018.77 1018.04 1017.69 1017.19 1017.07 1017.55 1017.31 1017.36 1017.83 1018.22 1018.74 1018.88 1019.02 1019.41 1019.47 1019.61 1019.03 1018.12 1017.64 1017.50 1017.10 1016.90 1016.78 1016.62 1016.42 1016.08 1015.72 1015.20 1014.70 1014.60
1015.49 1015.93 1016.25 1016.66 1016.99 1017.12 1017.42 1017.78 1018.10 1018.46 1018.89 1019.28 1019.66 1019.99 1020.32 1020.38 1020.29 1020.15 1020.12 1020.45 1020.76 1021.07 1020.36 1019.94 1019.18 1018.03 1017.86 1017.58 1017.59 1017.50 1017.47 1017.32 1018.14 1018.30 1018.79 1019.40 1019.91 1020.23 1020.19 1019.58 1018.98 1018.47 1018.52 1018.10 1017.73 1017.52 1017.34 1017.26 1017.02 1016.74 1016.44 1015.85 1015.66 1015.56
1015.52 1015.79 1016.02 1016.37 1016.64 1016.91 1017.29 1017.67 1018.13 1018.63 1019.11 1019.58 1019.84 1020.14 1019.99 1019.88 1019.81 1020.12 1020.48 1020.60 1020.64 1020.54 1020.48 1019.83 1019.28 1018.26 1018.25 1017.62 1017.35 1017.40 1017.44 1017.68 1017.93 1018.97 1019.18 1019.48 1020.44 1020.60 1020.25 1019.60 1019.10 1018.87 1018.36 1018.11 1018.11 1018.30 1018.18 1018.13 1017.96 1017.62 1017.44 1017.32 1016.75 1016.82
1015.43 1015.88 1015.94 1016.22 1016.54 1016.86 1017.20 1017.68 1018.20 1018.82 1019.43 1019.73 1019.60 1019.76 1020.04 1020.00 1020.15 1020.12 1020.03 1020.13 1019.96 1019.87 1019.63 1019.04 1018.68 1018.15 1018.31 1017.90 1017.72 1018.00 1017.87 1018.10 1018.27 1018.95 1018.94 1019.76 1020.19 1020.60 1020.44 1019.88 1019.53 1019.21 1019.03 1018.79 1018.82 1018.89 1018.84 1018.90 1018.66 1018.40 1018.09 1017.82 1017.61 1017.40
1015.44 1015.65 1015.78 1016.04 1016.40 1016.71 1017.14 1017.70 1018.15 1018.54 1018.80 1018.81 1019.00 1019.53 1019.98 1020.04 1019.86 1019.77 1019.49 1019.46 1019.31 1018.88 1018.58 1018.44 1018.36 1018.29 1018.21 1018.19 1017.84 1018.09 1018.06 1018.40 1018.70 1019.15 1019.09 1019.90 1020.43 1020.71 1020.64 1020.35 1020.07 1019.86 1019.58 1019.38 1019.27 1019.45 1019.54 1019.48 1019.36 1019.21 1018.95 1018.55 1018.16 1017.90
1015.44 1015.63 1015.78 1015.98 1016.27 1016.61 1017.12 1017.68 1018.19 1018.45 1018.70 1018.74 1018.77 1019.00 1019.20 1019.36 1019.01 1018.65 1018.74 1018.53 1018.34 1017.94 1017.92 1018.13 1018.24 1018.15 1018.37 1018.11 1018.02 1017.93 1018.22 1018.77 1019.20 1019.26 1019.65 1020.01 1020.29 1020.52 1020.61 1020.42 1020.33 1020.24 1020.07 1019.94 1019.96 1019.97 1020.15 1020.17 1020.09 1019.87 1019.65 1019.32 1018.95 1018.52
1015.44 1015.54 1015.67 1015.98 1016.30 1016.71 1017.30 1017.80 1018.33 1018.62 1018.55 1018.28 1018.13 1018.16 1018.03 1017.61 1017.04 1016.53 1016.71 1016.77 1016.68 1016.96 1017.46 1017.67 1017.97 1018.10 1018.11 1017.89 1018.15 1018.22 1019.06 1019.07 1019.32 1019.44 1019.69 1019.92 1020.20 1020.40 1020.48 1020.45 1020.53 1020.62 1020.55 1020.46 1020.50 1020.57 1020.57 1020.52 1020.58 1020.52 1020.19 1019.82 1019.57 1019.16
1015.39 1015.45 1015.80 1016.17 1016.42 1016.88 1017.47 1018.05 1018.58 1018.75 1018.44 1017.90 1017.50 1017.06 1016.69 1016.09 1015.96 1015.77 1015.58 1015.83 1016.24 1016.70 1017.16 1017.72 1018.34 1018.42 1018.21 1018.35 1018.54 1018.66 1018.96 1019.13 1019.31 1019.38 1019.50 1019.73 1020.10 1020.44 1020.56 1020.60 1020.61 1020.79 1020.94 1020.92 1020.97 1020.95 1020.94 1020.94 1020.82 1020.70 1020.52 1020.24 1019.88 1019.66
1015.52 1015.67 1016.10 1016.39 1016.71 1017.17 1017.74 1018.43 1018.92 1018.82 1018.18 1017.57 1017.13 1016.48 1016.04 1015.82 1015.44 1015.34 1015.46 1015.72 1016.20 1016.65 1017.28 1017.69 1018.25 1018.28 1018.13 1018.28 1018.42 1018.53 1018.52 1018.57 1018.94 1019.20 1019.44 1019.92 1020.26 1020.44 1020.56 1020.66 1020.80 1020.92 1020.96 1020.94 1020.95 1021.04 1021.07 1021.02 1020.92 1020.94 1020.78 1020.64 1020.51 1020.10
1015.55 1016.05 1016.66 1016.86 1017.16 1017.62 1018.14 1018.28 1018.50 1018.24 1017.44 1016.58 1016.07 1015.82 1015.54 1015.36 1015.27 1015.28 1015.50 1015.71 1016.04 1016.46 1016.68 1017.28 1017.55 1017.54 1018.01 1018.09 1018.31 1018.36 1018.28 1018.56 1018.88 1019.53 1019.88 1020.31 1020.41 1020.44 1020.58 1020.72 1020.83 1020.94 1021.06 1021.16 1021.14 1021.09 1021.02 1021.07 1020.95 1020.78 1020.74 1020.88 1020.82 1020.76
1015.92 1016.54 1016.78 1017.07 1017.42 1018.09 1018.08 1018.07 1017.76 1017.21 1016.45 1015.72 1015.46 1015.06 1015.20 1015.18 1015.25 1015.48 1015.81 1016.05 1016.24 1016.22 1016.24 1016.74 1017.11 1017.36 1017.89 1018.08 1018.18 1018.56 1018.78 1019.22 1019.61 1020.04 1020.52 1020.72 1020.81 1020.84 1020.77 1020.75 1020.92 1021.15 1021.38 1021.56 1021.59 1021.42 1021.23 1021.05 1020.90 1020.80 1020.86 1020.87 1020.66 1020.58
1015.99 1016.35 1016.83 1017.11 1017.25 1017.39 1017.33 1017.37 1017.18 1016.31 1015.55 1015.28 1015.22 1015.32 1015.06 1015.27 1016.03 1016.26 1016.30 1016.61 1016.77 1016.66 1016.71 1017.18 1017.80 1018.38 1018.86 1019.03 1019.06 1019.34 1019.52 1019.43 1019.85 1020.56 1021.07 1021.31 1021.33 1021.31 1021.36 1021.42 1021.57 1021.73 1021.86 1021.94 1021.82 1021.64 1021.49 1021.53 1021.46 1021.19 1020.93 1020.83 1020.51 1020.37
1016.50 1016.84 1017.24 1017.42 1017.40 1017.21 1016.86 1016.47 1016.43 1015.86 1015.43 1015.99 1015.86 1015.89 1016.22 1016.41 1016.69 1017.06 1017.18 1017.26 1017.32 1017.54 1018.06 1018.76 1019.51 1019.75 1019.60 1019.85 1019.87 1019.98 1020.20 1020.30 1020.22 1020.76 1021.33 1021.60 1021.72 1021.83 1021.96 1021.96 1022.02 1022.15 1022.07 1022.17 1022.08 1022.04 1021.64 1021.42 1021.35 1021.20 1021.03 1020.91 1020.61 1020.40
1016.90 1017.26 1017.57 1017.50 1017.42 1017.31 1017.06 1016.27 1015.92 1016.08 1016.04 1016.14 1016.34 1016.66 1017.14 1017.26 1017.76 1018.48 1018.68 1018.48 1018.66 1019.73 1020.25 1020.62 1020.70 1020.79 1020.84 1020.77 1020.70 1020.67 1020.82 1020.84 1020.90 1020.98 1021.38 1021.78 1022.22 1022.13 1022.22 1022.19 1022.16 1022.11 1022.10 1022.18 1022.08 1022.07 1021.98 1021.89 1021.78 1021.50 1021.16 1020.87 1020.73 1020.56
1016.63 1017.15 1017.39 1017.66 1017.27 1016.97 1016.60 1016.01 1015.87 1015.95 1015.99 1016.57 1016.88 1017.10 1017.71 1018.72 1019.51 1020.30 1020.76 1020.65 1021.38 1021.78 1021.58 1021.42 1021.42 1021.20 1021.14 1021.21 1021.22 1021.18 1021.34 1021.42 1021.65 1021.96 1022.24 1022.38 1022.22 1022.28 1022.47 1022.62 1022.49 1022.51 1022.53 1022.53 1022.40 1022.27 1022.12 1022.13 1022.08 1021.79 1021.49 1021.23 1020.95 1020.82
1016.58 1016.65 1016.45 1016.72 1016.58 1016.37 1016.15 1015.76 1015.59 1015.68 1015.79 1016.20 1016.71 1017.44 1018.64 1019.78 1020.90 1021.56 1022.51 1023.04 1022.94 1022.66 1022.22 1021.80 1022.00 1021.93 1021.82 1021.79 1021.70 1021.75 1021.88 1021.83 1021.97 1022.26 1022.42 1022.52 1022.74 1022.93 1022.91 1022.95 1022.98 1022.82 1022.66 1022.73 1022.84 1022.60 1022.35 1022.47 1022.15 1021.86 1021.57 1021.31 1021.11 1020.96
1016.10 1015.78 1015.53 1015.60 1015.61 1015.48 1015.66 1015.59 1015.58 1015.59 1015.70 1016.17 1016.90 1018.18 1019.47 1020.47 1021.27 1022.18 1023.29 1023.77 1023.60 1023.17 1022.76 1022.85 1022.78 1022.29 1022.14 1022.12 1021.99 1022.10 1022.17 1022.20 1022.32 1022.60 1022.76 1022.74 1022.81 1023.11 1023.22 1023.14 1023.14 1023.12 1023.14 1023.05 1022.88 1022.72 1022.50 1022.35 1022.26 1021.87 1021.59 1021.32 1021.12 1020.95
1015.74 1015.95 1015.71 1015.63 1015.34 1015.06 1015.16 1015.37 1015.57 1015.60 1016.20 1016.82 1017.64 1018.96 1019.97 1020.64 1021.41 1022.58 1023.45 1024.09 1023.88 1023.40 1023.25 1023.27 1023.02 1022.74 1022.43 1022.16 1022.30 1022.46 1022.68 1022.47 1022.39 1022.56 1023.12 1023.13 1023.05 1023.11 1023.12 1023.20 1023.20 1023.23 1023.33 1023.06 1022.82 1022.75 1022.55 1022.38 1022.13 1021.96 1021.72 1021.45 1021.24 1020.86
1015.48 1016.13 1016.04 1015.79 1015.72 1015.46 1015.61 1015.79 1016.08 1016.32 1016.47 1017.34 1018.33 1019.34 1019.90 1020.50 1021.37 1022.46 1023.18 1023.76 1023.65 1023.30 1023.35 1023.16 1023.10 1022.90 1022.70 1022.84 1022.61 1022.62 1022.81 1022.96 1022.91 1022.86 1023.38 1023.45 1023.42 1023.29 1023.28 1023.21 1023.14 1023.00 1023.39 1023.30 1023.07 1022.79 1022.52 1022.32 1022.18 1022.03 1021.69 1021.39 1021.28 1021.04
1015.68 1016.00 1016.30 1016.49 1016.35 1016.36 1016.52 1016.80 1017.00 1017.17 1017.49 1017.85 1018.37 1018.86 1019.48 1020.23 1021.19 1022.24 1022.91 1023.32 1023.29 1023.18 1023.20 1023.23 1023.26 1023.13 1022.98 1023.06 1023.13 1023.20 1023.27 1023.29 1023.16 1023.37 1023.82 1023.90 1023.94 1023.94 1023.79 1023.64 1023.63 1023.65 1023.65 1023.42 1023.18 1022.94 1022.72 1022.47 1022.24 1022.00 1021.74 1021.42 1021.13 1020.94
1015.90 1016.11 1016.30 1016.88 1016.99 1017.28 1017.49 1017.95 1018.26 1018.67 1018.88 1019.15 1018.91 1019.22 1019.77 1020.39 1021.20 1021.83 1022.17 1022.33 1022.65 1022.88 1023.08 1023.23 1023.43 1023.30 1023.36 1023.46 1023.40 1023.39 1023.63 1023.78 1023.92 1024.00 1024.11 1024.12 1024.22 1024.24 1024.22 1024.08 1024.02 1023.98 1023.81 1023.61 1023.38 1023.06 1022.84 1022.54 1022.30 1022.02 1021.70 1021.38 1021.05 1020.84
1016.18 1016.62 1016.84 1017.44 1017.83 1018.41 1019.09 1019.35 1019.47 1019.72 1020.01 1019.78 1019.61 1020.08 1020.54 1020.99 1021.29 1021.40 1021.76 1022.08 1022.44 1022.66 1022.79 1023.09 1023.45 1023.61 1023.72 1023.81 1023.83 1023.75 1023.71 1023.64 1023.63 1023.66 1023.69 1023.75 1023.84 1023.99 1024.12 1024.00 1023.84 1023.71 1023.57 1023.36 1023.36 1023.20 1023.06 1022.77 1022.48 1022.11 1021.73 1021.34 1021.10 1020.68
1016.75 1017.09 1017.45 1018.27 1018.84 1019.46 1019.91 1020.14 1019.95 1020.17 1020.32 1020.35 1020.48 1020.74 1020.75 1021.04 1021.31 1021.59 1021.58 1021.75 1021.90 1021.99 1022.19 1022.55 1023.03 1023.16 1023.25 1023.30 1023.54 1023.80 1023.95 1023.90 1023.78 1023.64 1023.57 1023.64 1023.77 1023.93 1023.88 1023.75 1023.66 1023.53 1023.42 1023.20 1022.93 1022.70 1022.60 1022.35 1022.07 1021.72 1021.41 1021.06 1020.72 1020.40
1017.00 1017.36 1018.09 1018.89 1019.64 1020.20 1020.26 1020.28 1020.16 1020.12 1020.06 1020.22 1020.30 1020.40 1020.75 1021.00 1021.11 1021.32 1021.39 1021.50 1021.71 1022.00 1022.24 1022.56 1022.86 1023.02 1023.07 1023.14 1023.24 1023.43 1023.55 1023.87 1023.93 1023.95 1023.99 1023.95 1023.85 1023.66 1023.47 1023.32 1023.16 1023.04 1022.95 1022.80 1022.59 1022.35 1022.13 1021.94 1021.64 1021.36 1021.08 1020.79 1020.48 1020.26
1017.17 1017.59 1018.19 1019.01 1019.89 1020.22 1020.30 1020.04 1020.00 1020.16 1020.35 1020.36 1020.47 1020.63 1020.77 1020.73 1020.62 1020.79 1021.23 1021.43 1021.59 1021.74 1021.98 1022.17 1022.25 1022.54 1022.87 1022.98 1023.24 1023.40 1023.60 1023.40 1023.52 1023.57 1023.66 1023.70 1023.58 1023.20 1022.89 1022.72 1022.61 1022.52 1022.46 1022.30 1022.11 1021.94 1021.76 1021.58 1021.32 1021.11 1020.82 1020.52 1020.26 1020.03
1017.56 1017.85 1018.23 1018.89 1019.41 1019.61 1019.75 1019.75 1019.74 1019.91 1020.08 1020.06 1020.09 1020.12 1020.21 1020.28 1020.12 1020.06 1020.78 1020.88 1020.90 1021.02 1021.43 1021.73 1021.96 1022.23 1022.56 1022.79 1022.96 1023.15 1023.32 1023.25 1023.35 1023.89 1023.99 1023.87 1023.88 1023.50 1023.00 1022.24 1022.03 1022.22 1022.13 1021.92 1021.71 1021.54 1021.35 1021.25 1021.07 1020.92 1020.62 1020.37 1020.14 1019.94
Wind_Speed
10 11 9 8 6 5 4 4 4 4 4 3 2 4 5 7 6 2 2 2 1 1 2 5 4 5 5 3 1 3 2 2 1 4 3 3 3 5 6 4 7 11 11 8 7 7 8 12 3 5 5 5 8 10
10 10 7 6 5 5 4 4 5 4 4 4 3 4 4 8 7 3 2 2 1 0 3 3 6 11 7 1 2 3 4 7 5 3 2 2 3 4 5 4 9 8 4 5 6 3 5 5 8 4 4 5 7 8
9 10 7 8 6 5 4 4 4 5 5 5 5 4 5 8 7 3 2 2 1 2 3 3 6 2 6 14 9 4 3 3 4 3 1 2 6 2 3 4 10 5 3 2 5 3 6 9 8 6 6 7 8 9
8 9 7 7 6 5 4 4 5 5 6 6 6 5 5 7 10 4 1 3 1 1 2 1 1 5 3 8 13 16 8 1 2 4 3 3 3 1 1 4 5 3 3 4 2 3 5 7 11 9 7 8 10 10
7 8 8 9 7 4 4 4 5 5 7 7 7 6 6 7 10 3 1 3 1 2 2 4 8 1 4 7 9 10 10 5 3 2 3 3 1 3 4 2 4 5 2 2 2 4 4 7 8 11 8 10 10 9
7 9 10 7 5 4 4 4 5 4 8 8 8 7 6 7 9 2 1 2 4 1 2 3 4 3 1 3 3 5 6 5 3 2 3 2 2 4 2 3 9 9 2 5 2 2 2 7 3 11 9 9 10 10
9 10 8 7 5 4 3 4 5 5 9 9 9 7 7 8 3 1 2 2 4 2 0 3 4 0 3 2 2 2 5 2 1 2 3 3 4 4 3 4 10 7 3 7 5 2 5 11 5 9 10 8 8 10
10 11 10 7 5 4 4 5 5 9 10 10 9 8 7 6 3 2 1 7 5 1 1 2 3 2 4 2 1 3 1 1 4 2 1 4 3 3 3 8 11 9 5 10 8 9 6 5 9 11 9 8 8 11
11 11 9 7 6 6 6 6 10 11 11 11 10 10 3 1 1 0 6 9 1 2 1 1 1 1 3 2 1 1 2 3 1 3 3 3 5 5 8 11 12 13 6 5 10 10 10 10 11 11 12 13 11 11
10 10 9 7 7 8 8 10 12 12 12 13 3 3 2 2 9 9 1 2 2 2 1 2 2 1 2 2 1 1 2 2 2 4 1 3 2 4 8 9 11 13 14 12 10 11 10 10 9 9 10 9 10 9
10 9 8 6 7 9 10 14 15 16 8 2 3 1 2 4 1 1 1 2 2 2 3 3 5 2 2 1 2 2 1 1 2 2 1 2 3 5 9 11 11 12 14 14 11 10 10 9 8 7 9 9 9 9
9 7 7 6 8 10 14 17 18 4 4 3 4 4 2 1 1 1 1 0 2 2 3 2 2 2 2 1 1 1 2 0 3 2 2 3 2 5 2 8 10 11 12 13 14 13 13 12 10 9 9 10 10 10
7 6 6 6 9 12 17 18 13 2 4 2 1 3 3 3 1 3 2 3 2 3 4 3 2 0 2 1 2 0 3 3 1 2 2 3 2 4 3 4 8 9 12 14 15 15 13 12 12 11 10 11 12 12
4 5 5 7 10 13 16 17 12 1 2 2 3 3 3 3 4 5 5 3 3 2 4 3 3 1 1 1 1 3 2 1 2 1 2 3 4 4 3 5 4 6 9 11 12 13 14 13 12 12 11 9 10 12
3 4 8 9 12 14 14 15 8 2 1 2 2 3 4 2 3 3 0 1 2 3 5 4 3 2 1 2 2 2 3 3 1 3 2 4 4 4 5 2 6 3 4 5 6 7 8 9 10 11 11 12 12 11
11 9 5 11 13 14 14 11 2 1 2 3 3 3 2 2 1 1 1 1 3 4 3 3 3 2 2 2 2 2 3 2 4 3 4 5 4 3 3 3 4 5 4 3 3 4 4 5 6 6 8 10 10 11
6 3 9 11 14 16 13 3 3 3 3 3 3 4 3 2 1 1 0 1 4 3 1 3 5 2 3 3 2 1 3 5 6 5 4 4 3 2 2 2 3 5 4 4 4 4 4 3 2 3 5 6 6 6
3 7 12 16 11 7 2 2 3 4 6 4 3 3 3 1 1 1 0 1 2 2 1 2 2 1 3 2 3 3 4 4 5 5 4 3 4 4 4 6 8 8 8 7 6 5 6 6 5 3 2 2 2 3
8 11 16 12 3 3 4 5 3 3 4 2 1 0 1 4 5 4 3 3 2 2 3 3 5 3 3 3 5 5 4 3 4 4 6 7 7 7 8 9 9 9 8 6 6 5 4 5 5 4 3 2 3 3
9 11 12 4 2 1 2 1 2 3 2 4 3 5 4 4 3 6 7 4 3 3 6 5 4 3 3 3 2 4 4 3 5 6 6 6 6 7 8 6 6 5 5 5 5 5 4 3 4 4 4 4 4 4
4 7 5 1 1 1 2 3 0 1 3 3 2 3 2 6 7 7 7 6 6 5 4 4 4 4 4 4 3 4 4 2 3 2 4 5 4 5 5 5 5 5 5 5 5 5 4 5 4 5 5 5 6 5
4 11 2 1 2 3 3 2 2 1 1 4 2 2 3 4 4 5 4 8 4 4 4 3 4 5 3 4 3 3 4 5 6 6 7 5 4 4 5 4 4 4 4 4 5 5 5 4 5 4 5 6 5 6
11 5 3 4 3 1 2 1 1 2 1 3 2 4 4 3 3 2 5 3 3 3 3 7 9 7 5 4 5 5 4 5 5 4 4 4 4 3 3 3 3 3 3 3 4 5 5 4 4 6 6 5 5 4
4 3 2 2 2 2 2 2 1 1 2 4 4 4 4 4 2 4 4 2 3 3 8 3 7 5 3 3 3 3 3 2 4 4 3 3 3 3 1 2 2 2 3 4 4 5 5 5 5 6 6 7 6 6
1 5 3 4 2 3 4 2 3 2 4 4 4 4 3 2 3 3 2 1 1 2 3 2 4 4 2 2 2 3 3 1 1 2 3 1 2 1 0 2 2 3 2 4 4 5 5 5 5 6 7 7 8 9
6 5 4 4 3 4 4 3 4 4 3 4 4 4 2 3 3 3 2 4 5 4 3 3 4 4 2 2 2 2 3 2 2 2 3 2 2 2 3 4 4 3 4 4 5 7 7 7 6 8 8 9 5 9
5 4 3 2 2 1 3 3 3 4 5 4 3 3 3 3 3 3 5 6 4 5 3 2 2 2 2 3 3 3 3 2 3 6 5 4 4 4 4 4 5 5 5 4 5 6 6 6 7 8 8 8 7 7
3 4 4 5 5 5 4 4 5 5 3 3 1 3 2 3 3 4 4 4 6 2 0 2 3 4 4 3 2 3 5 5 6 6 4 4 3 3 3 2 3 4 4 4 5 5 6 6 6 8 8 8 8 8
4 2 3 6 5 5 5 5 4 2 3 2 2 2 3 2 2 3 4 4 4 5 6 7 5 5 4 4 4 3 3 4 4 5 6 5 4 4 3 3 3 3 3 4 1 2 4 5 6 7 8 7 6 6
3 2 4 5 5 5 5 3 3 2 1 2 3 3 3 2 2 1 2 3 3 4 6 7 7 5 4 4 5 5 3 2 2 3 4 4 3 2 2 2 2 2 3 3 4 5 4 6 5 5 5 4 5 6
2 3 5 4 4 3 3 2 3 4 3 4 3 5 4 1 2 2 2 2 4 6 8 8 6 4 4 5 5 5 5 4 3 3 3 3 4 4 5 5 5 5 5 6 6 6 7 7 7 8 8 9 9 9
3 4 4 4 3 2 2 1 2 2 2 2 2 1 2 1 1 2 4 6 6 6 7 7 7 6 5 4 3 2 1 1 2 3 5 5 6 7 7 6 6 6 7 7 6 6 6 7 7 8 8 9 9 8
5 6 7 5 4 5 4 3 3 3 2 3 3 4 3 2 4 2 4 5 5 7 8 8 6 5 7 7 4 2 3 4 5 6 10 10 11 10 8 5 3 3 4 4 3 3 4 6 6 7 8 7 7 8
Wind_Direction
280 290 289 285 238 266 282 283 285 279 274 257 324 146 151 159 137 83 76 16 10 124 193 210 187 178 163 196 234 50 261 132 277 223 224 226 243 220 248 135 170 181 175 186 217 241 214 7 159 234 22 330 342 349
264 278 271 254 204 260 266 267 272 267 255 231 167 155 158 168 150 107 98 29 9 140 342 262 247 249 253 224 170 205 208 184 229 221 236 249 241 264 253 216 190 209 252 177 243 11 56 60 77 41 338 337 3 13
265 264 247 206 204 226 244 253 259 256 231 211 184 182 174 167 155 100 118 143 90 45 238 260 227 211 216 232 225 258 203 229 123 112 244 263 253 272 231 237 167 145 182 214 196 178 101 76 73 45 21 50 57 46
245 247 242 187 216 228 233 245 245 244 216 196 186 178 170 158 149 138 123 145 107 112 297 226 343 261 190 187 204 218 268 228 181 217 154 225 257 135 272 265 79 34 307 181 259 161 221 68 39 22 28 52 59 64
225 238 201 192 212 215 234 239 239 232 203 187 170 171 158 154 165 139 114 195 262 357 311 298 302 186 197 194 222 222 228 243 240 231 166 214 240 245 250 74 31 339 308 252 139 12 342 50 12 9 17 25 34 25
214 226 189 186 201 212 224 229 227 230 187 177 160 161 155 157 152 150 233 179 201 277 309 302 345 265 285 275 192 177 178 199 222 305 23 353 246 317 30 64 352 357 36 23 53 308 346 358 49 8 356 11 24 22
200 197 175 183 191 202 207 215 202 199 163 157 151 159 153 157 177 206 19 53 160 184 295 298 309 250 312 278 161 157 175 188 272 73 16 341 5 23 18 51 333 346 25 40 33 137 64 34 9 5 5 13 30 29
188 171 172 174 188 183 185 185 185 156 152 151 146 143 143 163 285 293 206 159 150 205 219 314 286 278 1 354 141 353 88 151 41 60 75 4 13 23 54 356 351 7 32 29 45 59 49 28 34 27 20 11 35 29
170 166 169 169 179 166 166 175 154 147 147 132 129 131 132 189 170 247 131 138 155 289 300 244 281 34 347 35 288 202 300 92 10 55 54 32 2 31 338 3 9 28 35 21 68 45 42 33 16 21 24 20 34 21
160 168 161 169 168 159 167 154 146 142 131 129 139 188 182 183 129 136 182 150 193 183 201 244 243 265 310 335 84 256 19 70 98 47 307 59 97 17 354 357 16 18 22 33 53 44 34 32 20 10 18 26 23 18
164 173 157 162 159 160 164 147 138 120 111 196 185 130 51 74 124 190 182 225 150 239 195 230 209 251 143 301 23 9 78 17 85 76 88 41 46 42 340 17 27 34 41 43 50 47 40 29 22 16 19 21 24 25
168 161 151 152 159 170 153 148 146 142 165 169 117 103 118 181 181 250 211 151 230 271 179 211 178 231 131 241 242 88 91 109 72 1 102 92 57 67 337 38 48 43 48 51 48 51 43 40 35 35 30 27 30 29
159 146 149 149 163 158 155 158 154 112 164 158 153 147 161 144 148 146 229 272 256 210 175 170 147 163 164 200 94 149 73 56 164 40 74 87 108 107 129 68 63 59 62 61 56 59 61 48 39 34 33 36 39 40
144 155 159 159 162 157 158 161 163 52 235 203 181 162 220 181 227 195 186 198 196 186 150 145 118 355 25 113 11 88 75 127 69 63 97 126 126 110 104 132 109 74 62 64 61 57 61 60 54 48 39 29 42 41
87 122 127 145 151 152 154 167 160 339 322 246 192 204 216 286 283 295 189 133 89 127 133 114 66 4 115 110 34 130 142 102 140 137 160 136 132 131 123 125 130 124 102 84 68 61 61 61 56 50 41 40 36 42
118 128 88 135 139 136 130 127 149 255 248 233 224 234 186 250 14 174 210 131 136 141 81 80 112 219 112 99 118 148 160 105 145 166 122 130 119 122 124 146 157 156 178 131 79 54 58 54 46 44 57 47 46 40
152 79 151 132 129 131 147 144 169 219 258 225 226 210 238 281 310 347 205 89 137 138 137 156 183 139 137 133 119 208 63 91 111 103 96 97 121 87 97 145 155 160 127 58 22 23 21 7 2 40 53 48 51 50
75 142 140 133 131 142 202 221 230 231 240 223 239 161 185 181 159 138 128 144 147 242 128 65 41 66 42 81 110 104 106 95 80 94 88 60 43 38 54 97 117 109 89 77 65 60 44 33 27 7 322 339 339 70
144 153 151 153 129 178 183 196 225 262 242 264 333 270 168 94 58 46 65 61 32 30 98 54 52 36 56 59 95 101 107 102 94 66 69 59 63 81 87 93 95 90 83 70 49 36 35 39 33 14 359 315 309 323
124 148 156 81 304 337 269 223 211 259 18 22 6 33 354 38 91 56 49 36 38 45 44 45 29 33 67 70 76 103 98 119 112 99 84 73 68 77 68 69 71 77 71 54 55 26 31 32 25 3 12 5 340 340
130 150 127 283 59 359 304 314 163 86 155 124 64 57 106 44 47 32 20 2 55 33 54 33 42 47 57 71 75 103 111 102 86 103 117 102 66 67 66 55 44 42 43 42 31 42 34 26 9 2 356 354 339 325
104 148 128 81 252 191 257 232 333 122 88 98 140 74 63 54 35 22 4 30 47 20 19 29 34 25 78 83 85 63 86 105 96 96 92 125 113 86 62 43 35 39 33 23 16 15 21 26 8 9 8 7 12 21
154 175 158 165 183 78 264 199 167 66 101 104 106 71 57 64 52 57 70 10 8 357 48 59 28 18 52 61 79 81 93 132 116 110 110 96 92 86 90 71 31 8 7 33 344 339 349 340 358 349 352 350 352 355
203 208 219 149 148 211 81 52 32 73 59 46 44 71 54 62 61 69 65 18 6 72 100 118 7 19 91 63 54 55 55 101 114 114 120 138 137 116 56 28 345 331 334 331 331 333 334 338 333 342 344 338 333 325
68 357 37 357 43 255 64 56 31 79 79 79 86 79 81 119 74 70 90 133 248 138 151 307 334 349 331 48 84 68 25 211 157 137 99 29 94 132 101 2 359 7 344 321 346 345 351 349 349 347 340 342 336 332
70 22 41 14 26 33 20 46 39 37 80 84 78 115 125 100 85 94 154 162 207 191 219 276 330 337 23 352 26 57 46 44 125 114 89 57 44 19 18 2 353 26 15 330 328 334 334 338 338 337 330 328 305 306
65 53 59 33 7 57 84 63 44 47 41 48 100 122 123 98 98 119 141 182 202 219 232 271 254 242 126 104 88 59 55 68 53 86 99 79 58 33 6 3 357 358 342 343 338 338 339 338 336 336 332 330 332 329
69 33 56 14 61 27 61 48 31 31 27 4 350 64 74 93 115 146 185 181 205 185 147 71 149 134 117 86 65 96 99 108 109 111 120 112 96 57 28 6 354 324 304 348 342 345 344 342 343 339 336 331 330 329
59 50 79 50 58 51 42 23 13 16 354 319 87 105 104 72 116 141 154 151 148 164 152 143 132 130 117 100 79 79 129 167 153 106 93 80 67 63 20 0 359 4 353 358 96 325 340 323 329 332 340 343 338 330
67 29 93 57 48 40 21 346 2 36 76 45 104 131 120 108 113 128 162 168 174 174 165 153 150 164 148 143 126 115 98 101 108 110 95 74 47 352 300 303 306 309 311 308 316 319 295 303 320 323 327 344 355 2
80 83 78 62 75 72 71 21 90 100 95 82 84 102 90 68 162 182 221 169 139 141 149 154 161 166 160 154 150 153 152 175 202 229 259 285 282 278 277 276 274 274 277 283 293 301 312 317 320 316 305 300 297 294
59 82 117 105 129 191 287 22 59 74 78 118 94 115 140 191 195 172 159 150 152 165 171 174 173 176 180 153 161 178 314 116 212 251 275 286 296 298 293 285 281 278 281 285 287 292 307 315 320 328 328 334 334 330
101 97 105 120 146 187 175 180 158 154 193 213 216 203 202 233 245 176 167 202 187 181 180 189 185 169 174 189 199 200 231 266 285 288 276 269 268 280 293 281 274 287 310 317 315 308 327 341 348 353 358 1 358 355